This is the latest recevied weather packets stored in our database for station/object APPOWX. If no packets are shown the sender has not sent any weather packets the latest 10 day(s).
| Time | Temp. | Humidity | Pressure | Rain* | Wind** | Luminosity | Snow |
|---|---|---|---|---|---|---|---|
| 1777573938 | 18.33° C | 42% | 1011.8 hPa | 0 mm | - | - | - |
| 1777573878 | 18.33° C | 46% | 1011.8 hPa | 0 mm | - | - | - |
| 1777573817 | 18.33° C | 50% | 1011.8 hPa | 0 mm | - | - | - |
| 1777573758 | 18.33° C | 47% | 1011.9 hPa | 0 mm | - | - | - |
| 1777573697 | 17.78° C | 48% | 1011.8 hPa | 0 mm | - | - | - |
| 1777573637 | 18.33° C | 49% | 1011.8 hPa | 0 mm | - | - | - |
| 1777573576 | 17.78° C | 47% | 1011.8 hPa | 0 mm | - | - | - |
| 1777573517 | 18.89° C | 46% | 1011.8 hPa | 0 mm | - | - | - |
| 1777573457 | 18.33° C | 48% | 1011.8 hPa | 0 mm | - | - | - |
| 1777573396 | 17.78° C | 48% | 1011.8 hPa | 0 mm | - | - | - |
| 1777573336 | 18.33° C | 50% | 1011.9 hPa | 0 mm | - | - | - |
| 1777573276 | 17.22° C | 55% | 1011.8 hPa | 0 mm | - | - | - |
| 1777573216 | 17.78° C | 48% | 1011.9 hPa | 0 mm | - | - | - |
| 1777573155 | 17.78° C | 55% | 1011.8 hPa | 0 mm | - | - | - |
| 1777573096 | 18.33° C | 53% | 1011.8 hPa | 0 mm | - | - | - |
| 1777573035 | 18.33° C | 51% | 1011.9 hPa | 0 mm | - | - | - |
| 1777572975 | 17.78° C | 48% | 1011.9 hPa | 0 mm | - | - | - |
| 1777572915 | 18.33° C | 46% | 1011.8 hPa | 0 mm | - | - | - |
| 1777572854 | 18.33° C | 51% | 1012 hPa | 0 mm | - | - | - |
| 1777572794 | 18.33° C | 51% | 1011.9 hPa | 0 mm | - | - | - |
| 1777572734 | 19.44° C | 56% | 1011.9 hPa | 0 mm | - | - | - |
| 1777572675 | 18.89° C | 48% | 1011.8 hPa | 0 mm | - | - | - |
| 1777572615 | 18.33° C | 49% | 1011.9 hPa | 0 mm | - | - | - |
| 1777572554 | 18.33° C | 54% | 1011.9 hPa | 0 mm | - | - | - |
| 1777572494 | 17.78° C | 50% | 1011.9 hPa | 0 mm | - | - | - |
* Rain latest hour (hover to see other rain measurements)
** Current wind speed in m/s (hover to see current wind gust speed)